Terug naar catalogus

PRAETORIAN SDA_615

ActiefMilitairPO
NORAD 65578·PAYLOAD·🇺🇸 United States

Gelanceerd Sep 10, 2025 vanaf Vandenberg Space Force Base

Loading…

Volgende Passages (komende 24 uur)

TLE

VersSource: Space-Track

Epoch: Sep 14, 2026, 13:20 UTC

1 65578U 25203P   26257.55575534  .00000116  00000-0  92845-4 0  9994
2 65578  81.2995 287.7595 0008107 313.2701  46.7779 13.84442276 51077

Volg PRAETORIAN SDA_615 in realtime met AllMySat

Download on the App Store